Home   Weather   Fort Simpson   Past weeks

Flag for Canada Past Weather in Fort Simpson, Northwest Territories, Canada — Yesterday and Last 2 Weeks

Now
52 °F

Sprinkles. Overcast.


Feels Like: 47 °F
Forecast: 51 / 65 °F
Wind: 13 mph from Northwest

Location: Fort Simpson

Current Time: Aug 19, 2017 at 3:31:02 am

Latest Report: Aug 19, 2017 at 3:00 am


Visibility: 15 mi

Pressure: 29.54 "Hg

Humidity: 94%

Dew Point: 50 °F

Location of Fort SimpsonLocation

Past Weather in Fort Simpson — Graph

°F

Fort Simpson Temperature Yesterday

Maximum temperature yesterday: 68 °F (at 1:00 pm)
Minimum temperature yesterday: 54 °F (at 7:00 am)
Average temperature yesterday: 59 °F

High & Low Weather Summary for the Past Weeks

 TemperatureHumidityPressure
High95 °F (Aug 10, 4:09 pm)100% (Aug 5, 7:00 am)30.25 "Hg (Aug 5, 7:00 am)
Low41 °F (Aug 6, 5:00 am)20% (Aug 10, 4:09 pm)29.37 "Hg (Aug 18, 11:00 am)
Average67 °F58%29.77 "Hg
* Reported Aug 4 2:00 am — Aug 19 2:24 am, Fort Simpson. Weather by CustomWeather, © 2017

Note: Actual official high and low records may vary slightly from our data, if they occured in-between our weather recording intervals... More about our weather records

Advertising

Fort Simpson Weather History for the Previous 24 Hours

Scroll right to see more
 ConditionsComfort  
Time TempWeatherWind HumidityBarometerVisibility
2:24 am
Sat, Aug 19
52 °FSprinkles. Overcast.15 mph94%29.53 "Hg15 mi
2:00 am54 °FOvercast.16 mph82%29.53 "Hg15 mi
1:00 am54 °FOvercast.12 mph82%29.51 "Hg15 mi
12:00 am54 °FOvercast.10 mph88%29.50 "Hg15 mi
11:00 pm
Fri, Aug 18
54 °FMostly cloudy.14 mph88%29.49 "Hg15 mi
10:53 pm54 °FMostly cloudy.16 mph88%29.49 "Hg15 mi
10:00 pm54 °FLight rain. Mostly cloudy.15 mph88%29.48 "Hg12 mi
9:27 pm54 °FRain. Mostly cloudy.12 mph88%29.47 "Hg10 mi
9:19 pm54 °FLight rain. Mostly cloudy.14 mph88%29.47 "Hg15 mi
9:00 pm55 °FOvercast.14 mph82%29.46 "Hg15 mi
8:00 pm55 °FPartly sunny.13 mph82%29.46 "Hg15 mi
7:00 pm57 °FPartly sunny.14 mph82%29.45 "Hg15 mi
6:00 pm61 °FScattered showers. Broken clouds.12 mph72%29.44 "Hg15 mi
5:00 pm57 °FLight rain. Broken clouds.3 mph88%29.42 "Hg15 mi
4:10 pm61 °FLight rain. Mostly cloudy.14 mph72%29.41 "Hg5 mi
3:00 pm64 °FScattered showers. Broken clouds.13 mph64%29.40 "Hg15 mi
2:00 pm64 °FPartly sunny.13 mph56%29.39 "Hg15 mi
1:00 pm68 °FBroken clouds.9 mph46%29.37 "Hg15 mi
12:00 pm66 °FPartly sunny.5 mph49%29.37 "Hg15 mi
11:00 am66 °FPassing clouds.8 mph49%29.37 "Hg15 mi
10:00 am61 °FPassing clouds.7 mph63%29.39 "Hg15 mi
9:00 am57 °FPassing clouds.3 mph72%29.40 "Hg15 mi
8:00 am55 °FPassing clouds.5 mph82%29.41 "Hg15 mi
7:00 am54 °FScattered clouds.5 mph94%29.42 "Hg15 mi
6:00 am57 °FPassing clouds.8 mph82%29.42 "Hg15 mi
5:48 am55 °FPassing clouds.7 mph88%29.42 "Hg15 mi
5:00 am57 °FLight rain. Passing clouds.7 mph82%29.44 "Hg15 mi
4:00 am57 °FLight rain. Mostly cloudy.7 mph82%29.45 "Hg15 mi
3:00 am59 °FLight rain. Mostly cloudy.6 mph77%29.47 "Hg15 mi
Weather by CustomWeather, © 2017

See weather overviewHow to use our weather pages